When you browse on this site, cookies collect data to enhance your experience and personalize the content and advertising you see.
Visit our Privacy Policy to learn more. By continuing to use the site, you agree to this use of cookies and data.
  • En España
  • Lista de países
  • Para 7 días
  • Temperatura del agua
  • Mapa Satelital
  • El tiempo en el mapa
  • Informadores
  • user-avatar
    Iniciar sesión

    Tiempo cada hora Bambari

    Hoy, 22 Abril, Lunes

    Tiempo Temperatura Precipitaciones Viento Presión Humedad
    00:00 +26°C° 0 mm 0 mps 718 mmHg 24%
    01:00 +25°C° 0 mm 0 mps 718 mmHg 27%
    02:00 +25°C° 0 mm 0 mps 718 mmHg 29%
    03:00 +27°C° 0 mm 1 mps 718 mmHg 32%
    04:00 +27°C° 0 mm 1 mps 718 mmHg 35%
    05:00 +28°C° 0 mm 1 mps 719 mmHg 41%
    06:00 +29°C° 0 mm 2 mps 719 mmHg 47%
    07:00 +30°C° 0 mm 2 mps 720 mmHg 54%
    08:00 +32°C° 0 mm 2 mps 720 mmHg 49%
    09:00 +36°C° 0 mm 2 mps 720 mmHg 44%
    10:00 +38°C° 0 mm 2 mps 721 mmHg 39%
    11:00 +41°C° 0 mm 2 mps 720 mmHg 33%
    12:00 +43°C° 0 mm 1 mps 720 mmHg 27%
    13:00 +46°C° 0 mm 1 mps 719 mmHg 21%
    14:00 +44°C° 0 mm 1 mps 718 mmHg 22%
    15:00 +42°C° 0 mm 1 mps 717 mmHg 22%
    16:00 +41°C° 0 mm 1 mps 717 mmHg 23%
    17:00 +37°C° 0 mm 1 mps 717 mmHg 29%
    18:00 +36°C° 0 mm 2 mps 717 mmHg 34%
    19:00 +34°C° 0 mm 2 mps 717 mmHg 40%
    20:00 +32°C° 0 mm 2 mps 717 mmHg 43%
    21:00 +31°C° 0 mm 2 mps 718 mmHg 46%
    22:00 +30°C° 0 mm 2 mps 718 mmHg 48%
    23:00 +30°C° 0 mm 2 mps 718 mmHg 54%

    Mañana, 23 Abril, Martes

    Tiempo Temperatura Precipitaciones Viento Presión Humedad
    00:00 +29°C° 0 mm 1 mps 718 mmHg 59%
    01:00 +28°C° 0 mm 1 mps 718 mmHg 65%
    02:00 +28°C° 0 mm 1 mps 718 mmHg 68%
    03:00 +27°C° 0 mm 1 mps 718 mmHg 71%
    04:00 +27°C° 0 mm 1 mps 719 mmHg 74%
    05:00 +28°C° 0 mm 2 mps 719 mmHg 72%
    06:00 +29°C° 0 mm 2 mps 720 mmHg 69%
    07:00 +29°C° 0 mm 3 mps 720 mmHg 66%
    08:00 +32°C° 0 mm 2 mps 720 mmHg 57%
    09:00 +36°C° 0 mm 2 mps 721 mmHg 49%
    10:00 +38°C° 0 mm 2 mps 721 mmHg 40%
    11:00 +41°C° 0 mm 2 mps 720 mmHg 34%
    12:00 +43°C° 0 mm 1 mps 720 mmHg 27%
    13:00 +46°C° 0 mm 1 mps 719 mmHg 21%
    14:00 +43°C° 0 mm 1 mps 718 mmHg 23%
    15:00 +38°C° 0 mm 0 mps 718 mmHg 26%
    16:00 +35°C° 0 mm 0 mps 717 mmHg 29%
    17:00 +36°C° 0 mm 1 mps 717 mmHg 31%
    18:00 +35°C° 0 mm 1 mps 718 mmHg 33%
    19:00 +34°C° 0 mm 1 mps 718 mmHg 36%
    20:00 +34°C° 0 mm 2 mps 719 mmHg 41%
    21:00 +32°C° 0 mm 2 mps 719 mmHg 45%
    22:00 +31°C° 0 mm 2 mps 720 mmHg 50%
    23:00 +30°C° 0 mm 2 mps 719 mmHg 53%

    Pasado mañana, 24 Abril, Miércoles

    Tiempo Temperatura Precipitaciones Viento Presión Humedad
    00:00 +30°C° 0 mm 2 mps 719 mmHg 57%
    01:00 +29°C° 0 mm 1 mps 719 mmHg 60%
    02:00 +29°C° 0 mm 1 mps 718 mmHg 62%
    03:00 +28°C° 0 mm 1 mps 718 mmHg 64%
    04:00 +28°C° 0 mm 1 mps 718 mmHg 66%
    05:00 +29°C° 0 mm 1 mps 719 mmHg 63%
    06:00 +29°C° 0 mm 1 mps 719 mmHg 61%
    07:00 +30°C° 0 mm 1 mps 720 mmHg 58%
    08:00 +34°C° 0 mm 2 mps 721 mmHg 50%
    09:00 +37°C° 0 mm 2 mps 721 mmHg 42%
    10:00 +40°C° 0 mm 2 mps 721 mmHg 34%
    11:00 +43°C° 0 mm 2 mps 721 mmHg 29%
    12:00 +45°C° 0 mm 1 mps 720 mmHg 23%
    13:00 +45°C° 0 mm 0 mps 720 mmHg 17%
    14:00 +43°C° 0 mm 0 mps 719 mmHg 19%
    15:00 +43°C° 0 mm 1 mps 718 mmHg 21%
    16:00 +41°C° 0 mm 1 mps 718 mmHg 23%
    17:00 +39°C° 0 mm 1 mps 718 mmHg 26%
    18:00 +36°C° 0 mm 1 mps 718 mmHg 29%
    19:00 +35°C° 0 mm 1 mps 719 mmHg 32%
    20:00 +34°C° 0 mm 1 mps 719 mmHg 34%
    21:00 +33°C° 0 mm 1 mps 719 mmHg 36%
    22:00 +32°C° 0 mm 1 mps 720 mmHg 38%
    23:00 +32°C° 0 mm 1 mps 719 mmHg 41%

    25 Abril, Jueves

    Tiempo Temperatura Precipitaciones Viento Presión Humedad
    00:00 +31°C° 0 mm 1 mps 719 mmHg 44%
    01:00 +30°C° 0 mm 2 mps 718 mmHg 47%
    02:00 +30°C° 0 mm 2 mps 718 mmHg 50%
    03:00 +29°C° 0 mm 2 mps 718 mmHg 53%
    04:00 +29°C° 0 mm 2 mps 719 mmHg 56%
    05:00 +30°C° 0 mm 2 mps 719 mmHg 54%
    06:00 +31°C° 0 mm 2 mps 720 mmHg 51%
    07:00 +32°C° 0 mm 2 mps 721 mmHg 49%
    08:00 +35°C° 0 mm 2 mps 721 mmHg 43%
    09:00 +38°C° 0 mm 2 mps 721 mmHg 37%
    10:00 +42°C° 0 mm 3 mps 722 mmHg 30%
    11:00 +40°C° 0 mm 2 mps 721 mmHg 30%
    12:00 +40°C° 0 mm 2 mps 719 mmHg 29%
    13:00 +40°C° 0 mm 2 mps 718 mmHg 28%
    14:00 +40°C° 0 mm 2 mps 718 mmHg 29%
    15:00 +40°C° 0 mm 1 mps 718 mmHg 30%
    16:00 +40°C° 0 mm 1 mps 718 mmHg 31%
    17:00 +37°C° 0.2 mm 1 mps 718 mmHg 37%
    18:00 +35°C° 0.2 mm 1 mps 719 mmHg 42%
    19:00 +34°C° 0.2 mm 2 mps 719 mmHg 48%
    20:00 +32°C° 0.1 mm 2 mps 719 mmHg 51%
    21:00 +31°C° 0.1 mm 2 mps 719 mmHg 53%
    22:00 +30°C° 0.1 mm 1 mps 720 mmHg 56%
    23:00 +30°C° 0 mm 2 mps 719 mmHg 56%

    26 Abril, Viernes

    Tiempo Temperatura Precipitaciones Viento Presión Humedad
    00:00 +30°C° 0 mm 2 mps 719 mmHg 56%
    01:00 +30°C° 0 mm 2 mps 718 mmHg 56%
    02:00 +29°C° 0 mm 2 mps 718 mmHg 57%
    03:00 +29°C° 0 mm 2 mps 718 mmHg 59%
    04:00 +28°C° 0 mm 2 mps 718 mmHg 60%
    05:00 +30°C° 0 mm 2 mps 718 mmHg 57%
    06:00 +31°C° 0 mm 2 mps 719 mmHg 54%
    07:00 +32°C° 0 mm 2 mps 720 mmHg 51%
    08:00 +36°C° 0 mm 3 mps 720 mmHg 43%
    09:00 +38°C° 0 mm 3 mps 720 mmHg 36%
    10:00 +42°C° 0 mm 3 mps 720 mmHg 29%
    11:00 +43°C° 0 mm 2 mps 719 mmHg 26%
    12:00 +45°C° 0 mm 2 mps 719 mmHg 23%
    13:00 +45°C° 0 mm 1 mps 718 mmHg 20%
    14:00 +43°C° 0 mm 1 mps 717 mmHg 23%
    15:00 +41°C° 0 mm 1 mps 717 mmHg 27%
    16:00 +36°C° 0 mm 0 mps 717 mmHg 31%
    17:00 +37°C° 0 mm 1 mps 717 mmHg 33%
    18:00 +35°C° 0 mm 1 mps 717 mmHg 36%
    19:00 +34°C° 0 mm 1 mps 718 mmHg 38%
    20:00 +33°C° 0 mm 1 mps 718 mmHg 40%
    21:00 +32°C° 0 mm 1 mps 718 mmHg 42%
    22:00 +32°C° 0 mm 1 mps 719 mmHg 44%
    23:00 +31°C° 0.5 mm 1 mps 718 mmHg 51%

    27 Abril, Sábado

    Tiempo Temperatura Precipitaciones Viento Presión Humedad
    00:00 +30°C° 0.5 mm 2 mps 718 mmHg 58%
    01:00 +29°C° 0.5 mm 3 mps 717 mmHg 65%
    02:00 +28°C° 0 mm 3 mps 717 mmHg 67%
    03:00 +28°C° 0 mm 2 mps 717 mmHg 69%
    04:00 +27°C° 0 mm 2 mps 717 mmHg 72%
    05:00 +29°C° 0 mm 2 mps 718 mmHg 68%
    06:00 +30°C° 0 mm 3 mps 719 mmHg 64%
    07:00 +32°C° 0 mm 4 mps 720 mmHg 60%
    08:00 +34°C° 0 mm 4 mps 720 mmHg 53%
    09:00 +35°C° 0 mm 4 mps 721 mmHg 47%
    10:00 +37°C° 0 mm 4 mps 721 mmHg 41%
    11:00 +38°C° 0 mm 4 mps 720 mmHg 39%
    12:00 +40°C° 0 mm 4 mps 719 mmHg 37%
    13:00 +41°C° 0 mm 4 mps 718 mmHg 36%
    14:00 +40°C° 0 mm 3 mps 718 mmHg 34%
    15:00 +40°C° 0 mm 3 mps 718 mmHg 33%
    16:00 +40°C° 0 mm 2 mps 718 mmHg 32%
    17:00 +38°C° 0.3 mm 2 mps 718 mmHg 41%
    18:00 +35°C° 0.3 mm 2 mps 718 mmHg 50%
    19:00 +31°C° 0.3 mm 3 mps 719 mmHg 59%
    20:00 +30°C° 1.2 mm 3 mps 719 mmHg 67%
    21:00 +29°C° 1.2 mm 3 mps 720 mmHg 75%
    22:00 +27°C° 1.2 mm 3 mps 721 mmHg 84%
    23:00 +27°C° 0.1 mm 3 mps 720 mmHg 83%
    Mostrar más